User: anonymous   Login
Location: Caltech
(34.1382°N, 118.1253°W)
Time: 09:46:07
(UTC-08:00)
Language:

Cosmos 1508 Rocket - Orbit

View from above orbital plane
View from above orbital plane
View from above satellite
View from above satellite

Ground track
Ground track

The orbit data is extracted from the following two-line orbital elements,

1 14484U 83111B   14327.51364087  .00064750  00000-0  74397-3 0  7089
2 14484 082.8334 173.8056 0175847 058.7932 018.3504 15.45183331597036
Epoch (UTC): 23 November 2014 12:19:38
Eccentricity: 0.0175847
inclination: 82.8334°
perigee height: 311 km
apogee height: 550 km
right ascension of ascending node: 173.8056°
argument of perigee: 58.7932°
revolutions per day: 15.45183331
mean anomaly at epoch: 18.3504°
orbit number at epoch: 59703

The dashed part of the orbit path shows where the satellite is in the earth's shadow,  

DLR